User: anonymous   Login
Location: Brivio
(45.7333°N, 9.4500°E)
Time: 05:24:29
(UTC+00:00)
Language:

Cosmos 1356 - Orbit

View from above orbital plane
View from above orbital plane
View from above satellite
View from above satellite

Ground track
Ground track

The orbit data is extracted from the following two-line orbital elements,

1 13153U 82039A   19341.83192793  .00001434  00000-0  35806-4 0  9993
2 13153  81.0914 232.1020 0001959 176.0600 184.0656 15.39490172 58488
Epoch (UTC): 07 December 2019 19:57:58
Eccentricity: 0.0001959
inclination: 81.0914°
perigee height: 446 km
apogee height: 449 km
right ascension of ascending node: 232.1020°
argument of perigee: 176.0600°
revolutions per day: 15.39490172
mean anomaly at epoch: 184.0656°
orbit number at epoch: 5848

The dashed part of the orbit path shows where the satellite is in the earth's shadow,  

DLR